Location: Unspecified
(47.9110°N, 14.3980°E)
Time: 15:37:12
(UTC+00:00)

Cosmos 2173 Rocket - Pass Details

Date: 06 August 2020
Orbit: 945 x 1000 km, 82.9° (Epoch: 18 September)

Event Time Altitude Azimuth Distance (km) Brightness Sun altitude
Exits shadow 21:32:38 44° 160° (SSE) 1,305 4.2 -22.3°
Maximum altitude 21:34:35 69° 95° (E) 1,032 3.9 -22.4°
Drops below altitude 10° 21:40:41 10° 13° (NNE) 2,694 7.0 -22.8°
Sets 21:43:11 0° 11° (NNE) 3,638 7.9 -23.0°
